Theta_e
331 330 330 328 329 331 332 331 333 335 335 335 336 334 334 335 336 333 333 348 347 347 347 344 343 342 343 344 346 347 347 346 347 346 343 340 344 344 345 343 341 340 341
331 330 327 328 328 331 332 332 331 331 332 333 333 333 334 335 334 332 334 341 346 346 346 346 343 342 342 344 344 346 346 345 347 346 345 343 344 342 343 342 341 341 341
333 329 328 327 329 329 330 331 328 328 329 332 332 333 334 336 338 333 333 335 340 344 345 345 346 344 343 342 343 344 346 345 346 346 346 344 344 342 341 341 342 342 340
334 331 329 327 329 329 330 330 328 326 329 330 331 332 334 338 336 334 332 334 333 337 342 345 344 345 343 341 342 343 346 345 345 345 345 345 344 343 341 342 343 342 340
335 334 331 331 329 330 329 329 328 327 325 327 331 331 331 334 332 333 332 333 333 335 334 340 343 343 343 341 341 342 345 346 344 344 345 345 345 344 342 342 341 342 340
338 335 334 332 330 330 330 328 328 329 325 328 331 330 331 331 330 330 331 333 331 338 333 332 335 336 341 341 342 343 344 345 344 344 344 344 344 344 342 341 342 340 342
340 335 336 333 333 330 330 330 327 327 326 328 325 323 326 330 329 330 329 328 329 332 332 332 331 331 333 340 341 343 344 343 343 343 342 342 343 343 341 341 341 343 343
343 340 336 336 335 333 329 329 328 324 325 325 321 320 317 321 323 328 326 327 328 329 331 331 330 330 330 332 333 342 343 344 343 343 341 341 342 343 340 341 341 341 340
344 341 338 338 336 336 331 329 328 326 323 323 325 322 316 315 319 324 325 323 325 325 327 328 330 330 330 329 333 337 342 343 345 342 342 341 342 342 341 341 341 339 338
343 342 340 339 338 335 333 330 330 326 326 323 326 328 325 323 318 316 320 320 323 325 325 325 326 329 330 330 333 334 337 340 343 343 342 343 343 341 341 341 340 338 337
342 343 340 336 337 335 333 332 331 329 329 327 327 326 324 325 322 316 310 314 320 322 323 323 323 325 328 329 328 330 334 335 336 337 339 342 342 341 341 341 340 338 338
338 340 340 338 338 338 334 333 333 331 329 330 329 327 324 323 321 318 311 312 313 318 320 321 323 324 325 326 330 332 331 330 330 330 334 337 340 341 340 341 339 339 338
333 337 338 338 340 337 336 335 334 332 328 327 327 325 325 323 319 317 314 312 314 316 317 320 320 322 326 328 327 332 332 328 326 326 328 331 335 336 339 339 338 338 337
336 337 336 336 339 340 338 335 332 331 331 330 328 323 321 320 320 319 317 315 312 311 313 314 320 321 326 330 329 329 329 327 325 323 325 327 330 331 333 334 335 334 333
336 335 336 335 339 339 336 332 332 332 331 329 324 322 321 321 322 321 320 318 315 307 308 313 315 323 329 329 327 328 327 327 326 323 323 324 326 327 327 328 329 329 329
335 335 333 334 335 336 333 331 331 331 328 324 323 322 322 322 321 321 322 322 316 311 307 314 317 321 329 327 328 327 327 327 323 323 324 323 323 323 324 324 324 325 326
334 335 336 335 336 335 334 331 327 327 325 323 323 323 322 321 320 321 323 322 316 314 310 315 318 321 323 323 327 326 326 326 324 322 323 322 319 320 321 320 321 322 323
337 337 337 337 336 334 331 327 325 327 324 322 322 322 322 324 323 322 323 319 317 316 315 313 316 321 322 325 326 324 325 327 325 323 321 319 317 317 317 317 318 319 318
336 338 337 335 334 332 329 327 327 326 324 322 322 323 322 322 318 321 320 319 318 319 318 317 320 322 322 324 323 323 322 322 323 323 318 317 316 316 316 316 316 315 313
335 335 332 332 329 329 329 328 326 324 323 323 323 323 322 322 321 320 320 319 318 319 320 320 320 319 319 320 322 320 318 319 317 320 320 319 317 316 315 316 316 315 311
332 329 326 326 328 331 330 329 326 323 321 320 321 322 323 324 324 320 322 319 320 320 321 319 318 318 317 317 317 317 316 317 317 318 319 320 320 320 318 317 319 317 311
325 326 323 323 324 324 307 312 321 321 321 320 321 322 325 321 319 315 317 317 320 320 319 318 317 317 317 315 317 317 316 316 312 320 317 316 321 318 318 318 313 310 308
322 322 323 322 320 315 303 306 313 321 321 321 320 319 323 325 320 320 311 313 311 311 317 320 317 318 316 317 318 317 317 315 313 317 319 313 318 316 319 316 308 307 306
326 324 322 320 316 312 303 306 311 321 321 321 321 322 322 322 319 321 321 320 317 318 319 319 317 316 315 318 319 318 317 316 317 318 318 313 316 314 316 316 307 306 304
327 324 320 316 314 314 303 306 314 320 319 318 318 321 322 319 303 306 321 318 316 316 308 308 308 305 304 307 313 317 316 315 312 313 316 314 315 313 314 313 312 306 304
323 322 319 316 311 316 302 304 314 318 318 318 318 316 306 313 301 304 320 318 316 315 314 314 312 307 308 308 308 320 317 315 313 311 316 313 314 314 310 313 310 308 308
Wind_Speed
8 7 6 6 6 5 6 6 6 6 7 6 6 7 7 6 8 4 3 15 17 15 14 13 12 12 11 10 8 10 10 11 14 15 16 14 15 14 15 16 16 14 11
8 8 7 8 7 7 7 7 8 8 7 6 8 7 8 6 7 5 4 5 14 12 12 13 12 12 13 12 12 11 11 11 13 15 16 17 15 13 13 14 15 14 13
10 10 8 8 8 8 8 7 6 4 4 5 6 6 5 8 5 5 7 5 5 12 13 13 14 14 14 14 13 14 13 12 12 14 16 17 16 15 16 15 15 15 14
11 10 8 8 7 7 8 8 6 5 6 5 5 5 5 5 6 6 4 4 4 5 10 15 15 15 14 15 15 16 15 14 13 13 16 17 16 15 15 14 16 15 13
12 10 9 8 7 7 8 8 6 5 4 4 5 4 5 5 6 5 6 5 6 6 4 9 14 13 12 14 15 16 16 15 14 14 16 17 17 16 16 15 13 12 14
13 11 8 7 9 7 7 6 8 6 4 5 6 5 4 5 4 5 4 3 4 5 5 5 4 5 12 13 14 15 18 17 16 15 15 16 16 15 16 16 13 14 13
11 12 9 8 10 10 10 10 6 5 3 4 4 0 2 4 5 4 3 3 5 5 5 4 4 3 4 14 12 13 18 19 18 15 13 14 15 15 17 16 15 12 12
10 11 12 10 12 8 7 8 7 3 3 5 4 2 1 4 2 3 2 4 5 3 4 5 5 6 5 4 6 12 15 17 17 15 13 12 14 15 14 12 11 12 11
12 13 12 11 10 9 8 7 6 7 4 3 3 6 2 4 1 2 0 2 2 3 3 3 5 6 6 5 6 8 13 14 15 14 12 13 15 14 12 12 16 16 14
11 12 12 10 10 6 6 6 5 5 5 5 1 1 2 4 3 3 3 2 2 3 4 3 4 5 6 3 5 7 11 12 12 12 12 14 15 14 15 17 19 18 16
10 11 11 9 7 5 6 7 7 6 4 5 4 3 2 2 3 3 3 3 2 3 3 4 4 4 4 4 4 5 7 10 9 11 11 12 14 14 15 20 20 19 18
5 8 10 9 7 6 6 6 6 8 6 4 3 3 4 4 4 3 2 3 2 3 2 1 3 3 3 3 5 4 3 8 8 7 9 11 13 14 16 18 20 21 20
3 7 8 7 6 6 6 6 6 6 5 5 6 4 3 3 3 3 4 2 2 2 2 2 2 3 2 3 4 5 4 5 7 8 10 12 12 14 17 18 18 20 22
7 8 8 7 8 7 6 6 4 4 5 4 6 4 3 4 4 3 4 4 0 2 1 2 1 2 4 6 7 7 2 4 8 9 10 13 12 12 14 17 18 17 19
6 8 8 7 7 7 7 7 5 5 5 5 5 5 3 3 3 4 3 4 5 3 3 2 1 1 3 5 5 3 2 5 9 10 10 11 13 13 13 13 15 15 12
7 7 6 6 6 6 7 7 5 5 6 4 4 6 4 3 4 3 3 3 3 4 2 3 2 2 4 3 3 4 4 5 8 11 13 13 13 13 15 15 16 14 14
8 8 8 7 7 8 7 6 5 6 6 6 4 6 6 5 4 3 3 2 4 3 3 0 1 2 3 5 3 4 4 4 3 10 14 14 14 14 16 16 16 14 11
9 9 9 8 9 8 8 8 7 6 7 7 7 6 6 4 5 4 3 4 4 3 3 4 2 2 4 5 4 7 5 4 3 8 14 14 15 15 15 15 15 12 11
9 9 9 10 9 9 7 7 7 7 7 7 7 7 6 6 4 2 3 4 3 2 2 4 4 2 3 4 6 6 6 5 4 10 11 14 14 15 15 13 12 12 12
12 10 8 9 7 7 6 6 6 6 5 5 5 5 6 7 6 5 4 5 4 5 5 6 5 4 3 4 5 5 5 4 4 4 6 7 11 13 14 12 11 12 11
9 9 7 7 7 6 4 6 6 6 5 5 4 5 5 6 7 7 4 5 7 6 7 7 4 3 3 3 7 2 4 4 4 2 5 3 6 5 5 8 8 11 11
9 11 8 9 7 5 7 9 7 5 5 6 5 4 4 5 5 6 10 12 12 12 10 7 5 6 4 3 5 6 6 4 3 2 4 3 4 5 4 4 8 10 9
8 9 8 8 8 6 6 9 10 5 5 4 5 5 4 3 4 4 6 11 7 6 11 10 12 9 8 6 8 8 4 3 3 1 5 3 2 4 3 3 8 10 10
11 9 7 8 8 5 6 9 10 6 5 5 4 5 5 4 3 6 10 9 7 6 6 4 6 7 6 7 8 7 7 6 5 2 3 3 1 2 2 2 7 9 9
9 7 7 8 7 5 5 9 8 5 5 5 4 4 5 5 4 11 11 11 8 5 6 9 11 12 14 13 10 9 7 9 3 2 1 3 2 3 1 1 3 6 9
9 7 8 6 8 6 4 9 8 4 5 3 3 5 5 7 8 9 11 10 10 6 7 5 5 7 8 9 11 8 8 8 5 2 3 3 3 4 2 3 3 4 4
Wind_Direction
193 189 197 188 196 188 190 200 202 210 213 210 224 221 241 237 246 231 235 210 196 203 203 204 195 199 207 205 195 200 202 193 197 186 189 197 200 199 194 192 185 185 176
191 195 195 199 196 193 195 202 205 212 212 202 225 229 231 239 241 225 212 218 195 199 208 202 200 207 209 215 207 207 206 197 197 197 195 201 201 194 190 197 191 192 183
194 196 198 204 201 194 189 202 213 204 192 206 214 227 218 237 229 228 200 195 193 201 208 202 197 206 214 218 215 212 207 204 201 200 200 200 200 197 204 212 194 192 183
191 196 197 205 195 185 187 200 202 199 205 205 211 225 225 203 227 232 201 174 215 212 214 210 209 209 211 216 220 217 209 202 203 202 201 200 200 201 205 204 201 199 191
197 194 202 197 177 192 192 192 205 191 185 197 210 226 232 227 218 203 192 217 207 217 199 223 216 218 217 218 220 217 210 203 204 204 204 203 202 205 206 200 201 213 211
198 195 200 190 180 191 197 183 192 202 173 193 209 207 218 222 221 218 213 211 219 219 202 210 230 226 222 224 220 215 213 209 207 206 204 200 203 204 207 198 204 196 220
192 192 198 186 186 199 199 194 180 178 188 159 116 338 268 253 241 250 244 234 217 210 209 201 213 210 237 221 209 212 218 214 213 211 199 196 196 203 213 200 205 205 219
193 190 195 193 195 193 178 180 178 146 171 167 148 111 319 316 305 286 255 246 226 212 213 206 212 203 213 201 200 204 213 222 216 212 195 188 191 204 211 192 195 171 173
190 192 190 191 188 189 188 186 181 159 152 197 206 144 110 225 323 332 340 217 200 207 232 234 222 191 192 190 194 209 210 224 220 215 193 187 192 206 193 185 165 158 163
192 183 181 178 184 173 165 186 169 163 140 159 162 138 111 147 166 331 337 354 244 234 233 239 224 199 197 180 182 201 208 205 214 217 202 198 194 196 177 168 160 161 167
179 177 167 158 158 158 171 177 170 159 160 151 153 146 113 99 101 150 256 303 339 265 263 248 202 197 193 189 172 211 202 195 202 216 199 190 189 187 182 166 166 169 175
158 156 152 160 162 160 168 177 178 162 169 141 154 164 154 157 184 169 159 240 212 284 279 224 203 200 206 172 182 206 144 180 187 178 172 172 176 172 172 170 172 169 156
156 160 154 155 165 164 170 161 159 159 170 159 166 170 155 169 153 151 126 193 199 289 297 276 230 198 187 182 195 202 184 188 160 151 163 169 163 165 163 166 166 160 156
166 158 152 146 166 158 153 150 152 159 157 163 159 154 163 175 157 153 154 145 196 291 336 247 293 188 194 199 196 181 160 202 173 164 165 165 160 160 161 159 155 155 156
152 151 152 161 152 152 147 147 148 155 154 147 162 160 149 162 153 163 158 154 150 191 251 256 189 117 194 172 171 126 147 185 164 165 160 155 147 150 140 147 139 149 151
143 151 145 147 136 143 144 140 140 135 139 159 156 157 165 165 164 169 160 172 151 152 200 187 227 151 181 172 145 140 122 132 145 150 148 144 146 143 130 135 144 145 145
150 149 147 144 146 144 143 143 141 146 171 168 162 170 179 167 175 185 180 158 159 154 140 132 101 100 87 129 90 89 126 100 122 147 141 142 138 139 139 139 139 144 155
144 144 153 150 147 157 159 149 162 171 168 177 183 177 185 168 174 191 183 176 171 186 141 128 86 92 97 109 114 121 106 95 112 133 139 140 135 137 137 141 144 156 152
140 152 150 148 152 162 159 168 157 165 177 188 183 182 175 165 186 186 177 173 168 158 144 121 125 115 90 118 106 79 84 82 67 121 122 130 133 136 139 142 147 143 153
144 146 154 154 151 160 156 147 155 177 184 194 186 177 166 181 191 189 192 175 141 126 117 119 107 97 89 76 94 116 93 80 74 63 84 114 137 138 140 143 143 149 150
139 130 111 110 114 120 137 143 150 149 154 148 159 168 174 188 210 201 174 158 137 134 138 143 123 117 120 126 136 108 98 91 60 80 94 98 122 123 123 130 154 153 158
115 120 115 113 112 98 107 114 121 130 133 138 152 165 168 188 215 236 191 158 158 149 153 150 160 151 133 108 129 135 139 132 103 40 96 65 127 122 135 149 152 153 151
115 116 117 117 102 104 116 124 127 129 133 147 155 166 176 189 188 164 146 137 109 132 159 155 158 166 159 153 146 142 135 99 89 128 114 69 76 108 136 131 159 156 163
126 124 121 110 111 110 125 130 115 108 111 125 153 174 160 152 140 136 122 119 112 115 130 116 145 142 124 137 148 142 121 99 92 84 75 115 96 94 113 133 172 162 166
121 121 120 119 117 121 115 132 112 113 107 91 89 95 124 116 132 125 115 115 101 79 50 109 125 128 130 137 135 128 134 135 124 128 127 114 141 103 134 231 217 202 194
121 118 104 107 122 123 113 142 124 120 115 107 76 86 72 114 137 127 123 128 130 135 117 107 94 92 118 139 146 155 150 147 124 110 213 103 132 136 176 211 208 201 213